STARLINK-31703

decayed
NORAD ID: 59861 Int'l Des: 2024-098 Owner: SPXS Country: US Constellation: starlink
LEOCIRCULAR

关于 STARLINK-31703

正在加载描述...

高度历史

Altitude vs Time

uPlot chart will show altitude changes over time

两行轨道根数

1 59861U 24098D 24310.90664736 .04070701 89581-5 14135-2 0 9994
2 59861 42.9757 154.0773 0017787 278.3643 176.5488 16.23859392 26482
Epoch: Nov 5, 2024 • Age: 7526 hours

当前状态

Position data unavailable
发射日期 May 24, 2024
运行时间 1.3 years
衰减日期 Nov 6, 2024
类型 internet

技术详情

分类 Payload
质量 730.00 kg
干质量 700.00 kg
总质量 730.00 kg
长度 0.30 m
直径 4.10 m
跨度 29.00 m
形状 Box + pan
制造商 SPXS
平台类型 Starlink V2M
阶段状态 Unknown Transfer Status
所有者/国家 SPXS/US

大型星座

Loading constellations...